Regional Weather Roundup
Issued by NWS

Home | Current Version | Previous Version | Text Only | Print | Product List | Glossary On
Versions: 1 2 3 4 5 6 7 8 9 10 11 12 13 14 15 16 17 18 19 20 21 22 23 24 25 26 27 28 29 30 31 32 33 34 35 36 37 38 39 40 41 42 43 44 45 46 47 48 49 50
000
ASHW40 PHFO 160213
RWRHI

WEATHER ROUNDUP FOR HAWAII
NATIONAL WEATHER SERVICE HONOLULU HI
400 PM HST FRI NOV 15 2019

THIS IS AN AUTOMATED REPORT THAT HAS NOT BEEN QUALITY CONTROLLED.

NOTE..."FAIR" INDICATES FEW OR NO CLOUDS BELOW 12,000 FEET WITH NO
SIGNIFICANT WEATHER AND/OR OBSTRUCTIONS TO VISIBILITY.

* - THESE SITES REPORT LIMITED FIELDS
# - BUOY DATA PROVIDED BY PACIFIC ISLANDS OCEAN OBSERVING SYSTEM.

HIZ001>004-160300-
KAUAI-NIIHAU-

CITY           SKY/WX    TMP DP  RH WIND       PRES   REMARKS
LIHUE APT      SUNNY     79  74  84 S6        29.94F
PORT ALLEN*      N/A     79 N/A N/A S7          N/A
POIPU*           N/A     79 N/A N/A W1          N/A
PRINCEVILLE*     N/A     79 N/A N/A W1          N/A
KOKOLE POINT*  NOT AVBL
MOLOAA DAIRY*    N/A     79  72  78 SE3G10      N/A
WAIMEA HTS*    NOT AVBL
PUU OPAE*      NOT AVBL
PUU LUA*       NOT AVBL
MAKAHA RIDGE*  NOT AVBL
$$

HIZ005>011-160300-
OAHU-

CITY           SKY/WX    TMP DP  RH WIND       PRES   REMARKS
HONOLULU       MOSUNNY   84  71  65 SW10      29.94S
KALAELOA       NOT AVBL
KANEOHE MCB    MOSUNNY   84  71  65 NE7       29.92S
WHEELER FIELD  FAIR      83  70  63 E3        29.95S
BELLOWS*       NOT AVBL
KAHUKU*        NOT AVBL
WHEELER*       NOT AVBL
WAIANAE HARBOR NOT AVBL
DILLINGHAM*      N/A     88  70  55 W1G8        N/A  HX  92
KAHUKU TRN*      N/A     88  72  58 W2G8        N/A  HX  94
KAWAILOA*      NOT AVBL
KII*             N/A     84  72  65 W9G16       N/A
MAKUA RANGE*   NOT AVBL
OAHU FOREST NW NOT AVBL
SCHOFIELD BRK*   N/A     81  68  65 SW6         N/A
SCHOFIELD S*   NOT AVBL
WAIANAE VLY*   NOT AVBL
KUAOKALA*      NOT AVBL
HONOULIUULI*   NOT AVBL
MOKUOLOE IS*     N/A     82 N/A N/A N6          N/A
PALEHUA*       NOT AVBL
WAIAWA PHB*    NOT AVBL
$$

HIZ012>013-160300-
MOLOKAI-

CITY           SKY/WX    TMP DP  RH WIND       PRES   REMARKS
MOLOKAI AIRPT  MOSUNNY   82  71  69 N9        29.97S
KALAUPAPA      NOT AVBL
MAKAPULAPAI*   NOT AVBL
MOLOKAI 1*     NOT AVBL
PUU ALII*      NOT AVBL
$$

HIZ016-160300-
KAHOOLAWE-

CITY           SKY/WX    TMP DP  RH WIND       PRES   REMARKS
KAHOOLAWE*     NOT AVBL
HAKIOAWA*      NOT AVBL
HONOKANAIA*    NOT AVBL
KANELOA*         N/A     81  70  69 S8G15     30.02S
KEALIALALO*    NOT AVBL
LUA MAKIKA*    NOT AVBL
$$

HIZ014>015-160300-
LANAI-

CITY           SKY/WX    TMP DP  RH WIND       PRES   REMARKS
LANAI CITY     FAIR      78  73  84 NW9       30.02S
LANAI 1*       NOT AVBL
$$

HIZ017>028-160300-
MAUI-

CITY           SKY/WX    TMP DP  RH WIND       PRES   REMARKS
KAHULUI        MOSUNNY   85  71  63 N10       29.96R HX  90
KAPALUA-W MAUI MOSUNNY   84  72  65 N9        29.97R
HANA AIRPORT   PTSUNNY   82  72  69 NW3       29.98S
HANA*            N/A     82 N/A N/A NW5         N/A
HALEAKALA SUMM NOT AVBL
MAALAEA BAY*   NOT AVBL
HALEAKALA*     NOT AVBL
KAUPO GAP*     NOT AVBL
KULA 1*          N/A     64  55  72 NW3G12      N/A
$$

HIZ023>026-160300-
BIG ISLAND OF HAWAII COAST AND LOWER SLOPES-

CITY           SKY/WX    TMP DP  RH WIND       PRES   REMARKS
KAILUA KONA    SUNNY     84  71  65 NW15      29.92S
HILO           PTSUNNY   85  70  60 N6        29.95S
HONOKAA*       NOT AVBL
KAWAIHAE MWT*  NOT AVBL
KAWAIHAE*        N/A     82 N/A N/A W7          N/A
SOUTH POINT*     N/A     81 N/A N/A SE3         N/A
UPOLU AIRPORT*   N/A     82 N/A N/A NE8         N/A
KAMUELA*       NOT AVBL
HAKALAU*         N/A     64  59  84 SE1G8       N/A
KALOKO-HONOKO* NOT AVBL
PALI 2*          N/A     73  66  78 SE6G12      N/A
KEALAKOMO*       N/A     84  72  65 E9          N/A
KAUPULEHU*     NOT AVBL
KAPAPALA*        N/A     80  68  67 S5G10       N/A
LOWER KAHUKU*  NOT AVBL
PUHE CS*       NOT AVBL
PUHO CS*       NOT AVBL
PTA KEAMUKU*     N/A     75  63  64 W8G14       N/A
WAIKOLOA*      NOT AVBL
$$

HIZ027>028-160300-
BIG ISLAND OF HAWAII INTERIOR AND SUMMMITS-

CITY           SKY/WX    TMP DP  RH WIND       PRES   REMARKS
BRADSHAW FIELD MOSUNNY   69  57  67 NW15      30.31R
MK VISITOR CEN   N/A     54  46  76 W9          N/A
MAUNA KEA*       N/A     46  21  36 S2          N/A
MAUNA LOA*     NOT AVBL
MAUNA LOA 1*   NOT AVBL
PTA KIPUKA*      N/A     70  59  68 N6G13       N/A
PTA RANGE 17*    N/A     64  59  82 NW10G18     N/A
PTA WEST*        N/A     72  61  68 NW9G20      N/A
NENE CABIN*    NOT AVBL
AHUMOA*        NOT AVBL
PTA PORTABLE*  NOT AVBL
PUU MALI*        N/A     59  55  88 NW3         N/A
$$

HIC003-160300-
NORTHWEST ISLANDS-

CITY           SKY/WX    TMP DP  RH WIND       PRES   REMARKS
MIDWAY ISLAND  CLOUDY    72  55  56 N8        30.11S
MIDWAY NOS*    NOT AVBL
FRENCH FRIGATE NOT AVBL
$$

PHZ110>124-180-160300-
BUOY REPORTS

STATION/POSITION TIME  TEMP    WIND        PRES    WAVE   SWELL
                       AIR SEA DIR/SP/G            HT/PER HT/DIR
                 (UTC) (F)     (DEG/KT/KT) (MB)    (FT/S) (FT/D)
BUOY 51101       0150   79     320/ 16/ 19 1013.5R   9/13   8/340
BUOY 51100       NOT AVBL
BUOY 51002       0150   81 83   70/ 12/ 14 1012.3R   7/16   7/350
BUOY 51003       0150      84  110/  4/  8 1013.9R   8/16   8/340
BUOY 51004       0150   81 82  110/ 14/ 17 1012.4F  10/16  10/360
WAIMEA BAY#      0136      78                N/A     6/15   5/340
MOKAPU POINT#    0130      82                N/A     7/15   5
LANAI#           0130      84                N/A     3/14   2/290
BARBERS PT#      0130      83                N/A     3/13   2/320
PAUWELA#         0130      83                N/A     8/15   7/350
HILO#            0146      82                N/A     9/15   8/340
KANEOHE BAY#     0130      82                N/A     7/15   7/360
KANEOHE BAY 2#   NOT AVBL
HANALEI#         NOT AVBL
KAHULUI HARBOR   0118   81     360/  7/ 10 1014.2
HONOLULU HARBOR  0118   81 83  240/  7/ 10 1014.0
PEARL HARBOR#    0130      83                N/A     2/17
KILO NALU        NOT AVBL
HILO HARBOR      0124   80 83   10/  4/  5 1013.7
MOKUOLOE         0136   82 82   10/  6/  7 1014.1R
NAWILIWILI       0118   78 84  190/  8/ 12 1013.5
WHOTS BUOY       NOT AVBL
BUOY 51028       NOT AVBL
$$

......................KEY........................................
  SKY/WX - SKY CONDITIONS/PRESENT WEATHER
  TMP    - TEMPERATURE IN FAHRENHEIT
  DWPT   - DEWPOINT IN FAHRENHEIT
  RH     - RELATIVE HUMIDITY IN PERCENT
  WIND   - DIRECTION AND SPEED /MPH FOR ISLANDS...KTS FOR BUOYS/
  PRES   - MEAN SEA LEVEL PRESSURE IN INCHES OF HG
  VSB    - VISIBILITY IN MILES
  HX     - HEAT INDEX
  WCI    - WIND CHILL INDEX
  VRB    - VARIABLE WIND DIRECTION
  N/A    - NOT AVAILABLE



USA.gov is the U.S. government's official web portal to all federal, state and local government web resources and services.